Weather Service Report


780 
ASUS43 KMPX 021610
RWRMN 
WEATHER ROUNDUP FOR MINNESOTA
NATIONAL WEATHER SERVICE TWIN CITIES/CHANHASSEN MN
1100 AM CDT SUN AUG 02 2015


NOTE: "FAIR" INDICATES FEW OR NO CLOUDS BELOW 12,000 FEET WITH NO
SIGNIFICANT WEATHER AND/OR OBSTRUCTIONS TO VISIBILITY. N/A MEANS
CURRENT SKY AND/OR WEATHER CONDITIONS ARE NOT AVAILABLE.

MNZ060>063-068>070-021700-
   Twin Cities Metro   
  
CITY           SKY/WX    TMP DP  RH WIND       PRES   REMARKS
TWIN CITIES    MOSUNNY   80  64  58 SW15      29.62F                  
ST PAUL        MOSUNNY   78  65  63 W12       29.62F                  
CRYSTAL        MOSUNNY   79  65  62 SW9       29.60F                  
LAKEVILLE      MOSUNNY   79  64  61 W13G21    29.64F                  
EDEN PRAIRIE   MOSUNNY   80  65  59 SW12      29.62F                  
SOUTH ST PAUL  MOSUNNY   80  64  58 W15       29.63S                  
LAKE ELMO      FAIR      77  66  69 W12       29.63F                  
$$
MNZ001>005-007-008-013>017-022>024-027-028-021700-
   Northwest Minnesota   
  
CITY           SKY/WX    TMP DP  RH WIND       PRES   REMARKS
BEMIDJI        MOSUNNY   71  56  59 NW15G21   29.74                   
HALLOCK        SUNNY     70  54  56 NW13G20   29.80R                  
ROSEAU         MOSUNNY   70  54  56 NW17      29.76R                  
WARROAD        MOSUNNY   68  52  56 NW16G23   29.75R                  
THIEF RVR FALL MOSUNNY   70  55  60 NW16      29.79R                  
CROOKSTON      SUNNY     72  55  56 N14G20    29.80R                  
FOSSTON        PTSUNNY   72  55  56 NW15G23   29.78R                  
DETROIT LAKES  MOSUNNY   72  61  68 N10G21    29.79R                  
MOORHEAD       SUNNY     72  61  68 N17       29.80R                  
PARK RAPIDS    SUNNY     75  56  51 NW15G22   29.73S                  
MAHNOMEN       CLOUDY    70  60  70 NW13      29.78R                  
$$
MNZ006-009>011-018-025>026-021700-
   North Central Minnesota   
  
CITY           SKY/WX    TMP DP  RH WIND       PRES   REMARKS
BAUDETTE       MOSUNNY   69  55  60 NW20G28   29.71S                  
FLAG ISLAND    MOSUNNY   68  48  49 NW18G28   29.71S                  
INTL FALLS     PTSUNNY   68  56  65 NW14      29.67F                  
WASKISH        MOSUNNY   70  61  73 W12       29.72R                  
BIG FORK       MOSUNNY   72  57  60 NW6       29.70R                  
LONGVILLE      PTSUNNY   70  63  78 W9        29.71S                  
GRAND RAPIDS   MOSUNNY   68  59  73 NW12      29.70R                  
CRANE LAKE     SUNNY     66  55  68 NW7       29.67S                  
ORR            SUNNY     70  54  56 NW9       29.65R                  
COOK           MOSUNNY   70  54  56 NW7       29.67R                  
WALKER         PTSUNNY   71  59  65 NW12      29.73R                  
$$
MNZ012-019>021-037-021700-
   Northeast Minnesota   
  
CITY           SKY/WX    TMP DP  RH WIND       PRES   REMARKS
DULUTH         PTSUNNY   65  59  81 NW7       29.64S                  
ELY            MOSUNNY   66  55  68 N8        29.64S                  
HIBBING        PTSUNNY   67  61  81 NW8       29.68R                  
EVELETH        PTSUNNY   64  59  82 CALM      29.67R                  
DULUTH HARBOR  PTSUNNY   70  61  73 NW3       29.62F                  
TWO HARBORS    PTSUNNY   73  63  68 W7        29.61R                  
SILVER BAY     DRIZZLE   66  61  82 N3        29.59S                  
GRAND MARAIS     N/A     60  54  80 VRB3      29.55F                  
G MARAIS ARPRT MOSUNNY   68  52  56 NW9       29.60F                  
$$
MNZ029>031-032-039>041-046>048-054>057-064-021700-
   West Central Minnesota   
  
CITY           SKY/WX    TMP DP  RH WIND       PRES   REMARKS
FERGUS FALLS   SUNNY     72  61  68 N10       29.76R                  
WHEATON        SUNNY     72  61  68 N15G23    29.79R                  
MORRIS         SUNNY     77  64  65 N15G22    29.74R                  
ALEXANDRIA     SUNNY     77  60  55 N10       29.75R                  
ELBOW LAKE     FAIR      73  63  70 NW12G17   29.76R                  
WADENA         SUNNY     72  61  68 NW12      29.74R                  
GLENWOOD       SUNNY     75  64  69 N15G21    29.73R                  
APPLETON       SUNNY     79  64  61 N18       29.74R                  
BENSON         SUNNY     79  66  65 N8G16     29.72R                  
ORTONVILLE     SUNNY     75  63  64 N13       29.77R                  
MADISON        MOSUNNY   77  66  69 N14G21    29.75R                  
WILLMAR        FAIR      79  66  65 NW15      29.72R                  
$$
MNZ033>034-036-042>043-049>051-058-059-021700-
   Central Minnesota     
  
CITY           SKY/WX    TMP DP  RH WIND       PRES   REMARKS
ST CLOUD       CLOUDY    75  66  73 NW9       29.65R                  
SAUK CENTRE    PTSUNNY   75  67  76 N12       29.71R                  
PAYNESVILLE    SUNNY     74  66  75 W10       29.69R                  
AITKIN         MOSUNNY   75  61  60 NW7       29.68R                  
PINE RIVER     PTSUNNY   73  59  60 NW9G18    29.75R                  
BRAINERD       MOSUNNY   74  60  61 NW8       29.71R                  
STAPLES        SUNNY     73  59  60 NW12G17   29.72S                  
LONG PRAIRIE   FAIR      73  61  64 N12       29.72R                  
LITTLE FALLS   MOSUNNY   75  57  53 NW7       29.70R                  
LITCHFIELD     SUNNY     79  66  65 W10G16    29.68R                  
BUFFALO        PTSUNNY   76  64  66 W9        29.63F                  
MAPLE LAKE     MOSUNNY   77  68  73 W7        29.65S                  
$$
MNZ037-044-045-052-053-021700-
   East Central Minnesota   
  
CITY           SKY/WX    TMP DP  RH WIND       PRES   REMARKS
PRINCETON      CLOUDY    75  68  78 W5        29.63R                  
MORA           PTSUNNY   73  63  68 N6        29.67R                  
CAMBRIDGE      CLOUDY    75  63  64 W5        29.61R                  
RUSH CITY      CLOUDY    74  67  78 S3        29.62S                  
MOOSE LAKE     PTSUNNY   73  57  56 N9        29.66R                  
HINCKLEY       FAIR      73  64  73 N7        29.66R                  
CLOQUET        CLOUDY    72  55  56 NW15      29.67R                  
MCGREGOR       PTSUNNY   73  59  60 NW8       29.68F                  
$$
MNZ071>073-080-081-089-090-097-098-021700-
   Southwest Minnesota   
  
CITY           SKY/WX    TMP DP  RH WIND       PRES   REMARKS
MONTEVIDEO     SUNNY     81  68  65 N13G20    29.75R                  
GRANITE FALLS  SUNNY     76  67  72 NW14G20   29.75R                  
CANBY          SUNNY     77  67  71 NW12G20   29.78R                  
MARSHALL       SUNNY     79  63  57 N16G25    29.77R                  
REDWOOD FALLS  SUNNY     80  64  58 NW9G22    29.71R                  
OLIVIA         SUNNY     73  63  68 NW13G22   29.70S                  
PIPESTONE      SUNNY     79  63  57 N13       29.80R                  
WINDOM         SUNNY     82  64  54 W16       29.76R                  
WORTHINGTON    SUNNY     79  64  61 W13       29.79R                  
JACKSON        SUNNY     82  66  57 W13       29.77R                  
TRACY          SUNNY     79  64  61 N15       29.77R                  
SLAYTON        SUNNY     79  63  57 NW15      29.80R                  
$$
MNZ065>067-074>077-082>085-091>093-021700-
   South Central Minnesota  
  
CITY           SKY/WX    TMP DP  RH WIND       PRES   REMARKS
MANKATO        SUNNY     81  64  57 W16       29.69F                  
NEW ULM        SUNNY     81  63  54 W17       29.71R                  
ST JAMES       SUNNY     84  64  51 W17       29.73R                  
FAIRMONT       SUNNY     82  66  57 W9G18     29.74R                  
GLENCOE        SUNNY     80  67  64 W9        29.65F                  
FARIBAULT      MOSUNNY   81  66  61 SW16G22   29.68F                  
OWATONNA       MOSUNNY   81  68  65 SW16G25   29.69F                  
WASECA         SUNNY     79  68  69 SW14G20   29.72S                  
ALBERT LEA     SUNNY     82  70  65 SW13G21   29.71F                  
$$
MNZ078>079-086>088-094>096-021700-
   Southeast Minnesota   
  
CITY           SKY/WX    TMP DP  RH WIND       PRES   REMARKS
ROCHESTER      MOSUNNY   80  71  74 SW20G28   29.69F                  
RED WING       MOSUNNY   84  64  51 W15       29.61F                  
STANTON        MOSUNNY   81  65  58 SW16      29.64F                  
DODGE CENTER   MOSUNNY   81  70  69 W14G24    29.70S                  
WINONA         SUNNY     82  68  61 SW10      29.64F                  
AUSTIN         SUNNY     82  70  65 SW15      29.71F                  
PRESTON        SUNNY     81  68  65 SW12      29.71F                  
$$
ABBREVIATIONS USED IN REMARKS
   TC - TEMPERATURES IN CELSIUS
  WCI - WIND CHILL INDEX
   HX - HEAT INDEX
  VSB - VISIBILITY 
$$

Return to Home page


Western Regional Climate Center, wrcc@dri.edu